Weather History for Marathon, FL

Change the Weather History Date:

Wednesday, January 9, 2013

  Actual Average Record
Temperature  
Mean Temperature 80 °F 69 °F  
Max Temperature 83 °F 75 °F 83 °F (2013)
Min Temperature 77 °F 64 °F 52 °F (2002)
Degree Days  
Heating Degree Days 0 2  
Month to date heating degree days 0 16  
Since 1 July heating degree days 6 37  
Cooling Degree Days 15 6  
Month to date cooling degree days 112 54  
Year to date cooling degree days 112 54  
Growing Degree Days 30 (Base 50)    
Moisture  
Dew Point 69 °F    
Average Humidity 70    
Maximum Humidity 76    
Minimum Humidity 63    
Precipitation  
Precipitation 0.00 in 0.05 in 0.04 in (2014)
Month to date precipitation 0.11 0.55  
Year to date precipitation 0.11 0.55  
Snow  
Snow 0.00 in - - ()
Month to date snowfall 0.0  
Since 1 July snowfall 0.0  
Snow Depth 0.00 in    
Sea Level Pressure  
Sea Level Pressure 30.17 in    
Wind  
Wind Speed 11 mph (ESE)    
Max Wind Speed 16 mph    
Max Gust Speed 23 mph    
Visibility 10 miles    
Events      
T = Trace of Precipitation, MM = Missing Value Source: NWS Daily Summary

Daily Weather History Graph

Daily Weather History Graph

Search for Another Location

Airport:

Trip Planner

Search our weather history database for the weather conditions in past years. The results will help you decide how hot, cold, wet, or windy it might be!

Date:

Astronomy

Jan. 09, 2013 Rise Set
Actual Time 7:10 AM EST 5:52 PM EST
Civil Twilight 6:45 AM EST 6:17 PM EST
Nautical Twilight 6:17 AM EST 6:45 PM EST
Astronomical Twilight 5:49 AM EST 7:13 PM EST
Moon 4:47 AM EST (1/9) 3:53 PM EST (1/9)
Length of Visible Light 11h 31m
Length of Day
10h 42m
Waning Crescent, 6% of the Moon is Illuminated
Jan 9
Waning Crescent
Jan 11
New
Jan 18
First Quarter
Jan 26
Full
Feb 3
Last Quarter

Hourly Weather History & Observations

Time (EST) Temp. Heat Index Dew Point Humidity Pressure Visibility Wind Dir Wind Speed Gust Speed Precip Events Conditions
12:53 AM 78.1 °F - 69.1 °F 74% 30.12 in 10.0 mi ESE 11.5 mph 19.6 mph N/A   Mostly Cloudy
1:11 AM 78.8 °F - 68.0 °F 69% 30.13 in 10.0 mi ESE 13.8 mph 19.6 mph N/A   Mostly Cloudy
1:20 AM 78.8 °F - 68.0 °F 69% 30.12 in 10.0 mi ESE 10.4 mph 21.9 mph N/A   Mostly Cloudy
1:53 AM 77.0 °F - 68.0 °F 74% 30.13 in 10.0 mi ESE 10.4 mph 20.7 mph N/A   Partly Cloudy
2:53 AM 77.0 °F - 69.1 °F 76% 30.13 in 10.0 mi ESE 9.2 mph 17.3 mph N/A   Partly Cloudy
3:53 AM 77.0 °F - 68.0 °F 74% 30.14 in 10.0 mi ESE 8.1 mph 17.3 mph N/A   Scattered Clouds
4:53 AM 77.0 °F - 68.0 °F 74% 30.14 in 10.0 mi ESE 6.9 mph 17.3 mph N/A   Scattered Clouds
5:53 AM 77.0 °F - 68.0 °F 74% 30.16 in 10.0 mi East 9.2 mph - N/A   Partly Cloudy
6:53 AM 77.0 °F - 68.0 °F 74% 30.17 in 10.0 mi East 9.2 mph 17.3 mph N/A   Partly Cloudy
8:53 AM 79.0 °F - 68.0 °F 69% 30.21 in 10.0 mi ESE 12.7 mph 20.7 mph N/A   Clear
9:53 AM 81.0 °F 84.1 °F 69.1 °F 67% 30.23 in 10.0 mi ESE 9.2 mph 18.4 mph N/A   Partly Cloudy
10:53 AM 82.0 °F 85.5 °F 69.1 °F 65% 30.22 in 10.0 mi East 10.4 mph 19.6 mph N/A   Partly Cloudy
11:53 AM 82.0 °F 84.9 °F 68.0 °F 62% 30.20 in 10.0 mi East 11.5 mph 20.7 mph N/A   Partly Cloudy
12:53 PM 82.9 °F 85.8 °F 68.0 °F 60% 30.18 in 10.0 mi ESE 13.8 mph 20.7 mph N/A   Partly Cloudy
1:53 PM 82.9 °F 86.5 °F 69.1 °F 63% 30.16 in 10.0 mi East 12.7 mph 19.6 mph N/A   Partly Cloudy
2:53 PM 81.0 °F 84.1 °F 69.1 °F 67% 30.16 in 10.0 mi East 11.5 mph - N/A   Scattered Clouds
3:53 PM 81.0 °F 84.1 °F 69.1 °F 67% 30.16 in 10.0 mi ESE 11.5 mph 20.7 mph N/A   Mostly Cloudy
4:03 PM 80.6 °F 83.9 °F 69.8 °F 70% 30.16 in 10.0 mi East 10.4 mph 18.4 mph N/A   Mostly Cloudy
4:36 PM 80.6 °F 83.9 °F 69.8 °F 70% 30.16 in 10.0 mi East 11.5 mph 17.3 mph N/A   Mostly Cloudy
4:44 PM 80.6 °F 83.9 °F 69.8 °F 70% 30.16 in 10.0 mi East 9.2 mph 20.7 mph N/A   Mostly Cloudy
4:53 PM 79.0 °F - 69.1 °F 72% 30.17 in 10.0 mi East 12.7 mph 20.7 mph N/A   Scattered Clouds
5:53 PM 79.0 °F - 69.1 °F 72% 30.18 in 9.0 mi East 8.1 mph 18.4 mph N/A   Partly Cloudy
7:53 PM 78.1 °F - 68.0 °F 71% 30.21 in 10.0 mi ESE 11.5 mph 19.6 mph N/A   Partly Cloudy
8:53 PM 78.1 °F - 68.0 °F 71% 30.21 in 10.0 mi East 11.5 mph 20.7 mph N/A   Mostly Cloudy
9:53 PM 78.1 °F - 68.0 °F 71% 30.23 in 10.0 mi ESE 11.5 mph 19.6 mph N/A   Partly Cloudy
10:53 PM 78.1 °F - 68.0 °F 71% 30.23 in 10.0 mi East 9.2 mph - N/A   Scattered Clouds
11:53 PM 77.0 °F - 68.0 °F 74% 30.22 in 10.0 mi East 13.8 mph 23.0 mph N/A   Partly Cloudy